LVJUW SEGU-SEMT

Flight info

Callsign LVJUW
Flight time 0h 49m
Altitude 8000
Route RENAR2B RENAR RENAR1
Aircraft P06T/L-SBDGRY/S

Departure

Time 2026-04-27 01:34
Airport José Joaquín de Olmedo International Airport (SEGU)

Arrival

Time 2026-04-27 02:24
Airport Eloy Alfaro International Airport (SEMT)
Time Latitude Longitude Altitude Speed Heading
2026-04-27 01:01 -2.16630 -79.89114 28 ft 0 kts 25°
2026-04-27 01:19 -2.16619 -79.89109 28 ft 7 kts 25°
2026-04-27 01:20 -2.16580 -79.89050 27 ft 13 kts 74°
2026-04-27 01:20 -2.16541 -79.88991 28 ft 0 kts 24°
2026-04-27 01:20 -2.16551 -79.88972 28 ft 6 kts 120°
2026-04-27 01:20 -2.16514 -79.88921 29 ft 13 kts 30°
2026-04-27 01:21 -2.16423 -79.88869 30 ft 15 kts 30°
2026-04-27 01:21 -2.16323 -79.88811 31 ft 17 kts 28°
2026-04-27 01:21 -2.16213 -79.88747 31 ft 18 kts 30°
2026-04-27 01:21 -2.16100 -79.88683 32 ft 18 kts 30°
2026-04-27 01:22 -2.15982 -79.88615 31 ft 20 kts 30°
2026-04-27 01:22 -2.15864 -79.88547 30 ft 18 kts 30°
2026-04-27 01:22 -2.15751 -79.88482 28 ft 18 kts 30°
2026-04-27 01:22 -2.15638 -79.88418 27 ft 18 kts 30°
2026-04-27 01:23 -2.15527 -79.88354 26 ft 18 kts 31°
2026-04-27 01:23 -2.15423 -79.88294 25 ft 15 kts 30°
2026-04-27 01:23 -2.15338 -79.88243 24 ft 12 kts 30°
2026-04-27 01:23 -2.15267 -79.88225 24 ft 10 kts 324°
2026-04-27 01:24 -2.15223 -79.88254 24 ft 8 kts
2026-04-27 01:24 -2.15170 -79.88228 24 ft 7 kts 30°
2026-04-27 01:24 -2.15125 -79.88203 23 ft 7 kts 30°
2026-04-27 01:24 -2.15077 -79.88174 23 ft 10 kts 30°
2026-04-27 01:25 -2.15006 -79.88134 22 ft 12 kts 30°
2026-04-27 01:25 -2.14934 -79.88093 24 ft 12 kts 30°
2026-04-27 01:25 -2.14856 -79.88048 23 ft 13 kts 31°
2026-04-27 01:25 -2.14763 -79.87994 24 ft 15 kts 30°
2026-04-27 01:26 -2.14680 -79.87942 24 ft 0 kts 43°
2026-04-27 01:28 -2.14654 -79.87891 24 ft 6 kts 73°
2026-04-27 01:28 -2.14649 -79.87875 24 ft 0 kts 73°
2026-04-27 01:30 -2.14648 -79.87869 24 ft 4 kts 73°
2026-04-27 01:30 -2.14635 -79.87801 22 ft 12 kts 98°
2026-04-27 01:30 -2.14684 -79.87757 22 ft 9 kts 201°
2026-04-27 01:30 -2.14741 -79.87791 22 ft 10 kts 210°
2026-04-27 01:31 -2.14811 -79.87831 22 ft 11 kts 210°
2026-04-27 01:31 -2.14861 -79.87859 22 ft 0 kts 210°
2026-04-27 01:33 -2.14958 -79.87916 22 ft 50 kts 210°
2026-04-27 01:34 -2.15392 -79.88171 78 ft 79 kts 212°
2026-04-27 01:34 -2.15871 -79.88455 258 ft 81 kts 207°
2026-04-27 01:34 -2.16371 -79.88732 481 ft 87 kts 210°
2026-04-27 01:34 -2.16889 -79.89052 769 ft 86 kts 211°
2026-04-27 01:35 -2.17389 -79.89363 1078 ft 85 kts 211°
2026-04-27 01:35 -2.17887 -79.89682 1390 ft 84 kts 211°
2026-04-27 01:35 -2.18372 -79.89999 1698 ft 83 kts 211°
2026-04-27 01:35 -2.18850 -79.90314 2003 ft 82 kts 211°
2026-04-27 01:36 -2.19325 -79.90628 2309 ft 81 kts 211°
2026-04-27 01:36 -2.19670 -79.91055 2595 ft 84 kts 253°
2026-04-27 01:36 -2.19621 -79.91650 2818 ft 92 kts 299°
2026-04-27 01:36 -2.19152 -79.92098 3026 ft 98 kts 334°
2026-04-27 01:37 -2.18530 -79.92416 3262 ft 101 kts 337°
2026-04-27 01:37 -2.17900 -79.92729 3513 ft 101 kts 336°
2026-04-27 01:37 -2.17345 -79.93007 3743 ft 100 kts 335°
2026-04-27 01:37 -2.16731 -79.93318 4002 ft 99 kts 336°
2026-04-27 01:38 -2.16121 -79.93630 4266 ft 98 kts 336°
2026-04-27 01:38 -2.15518 -79.93938 4525 ft 96 kts 336°
2026-04-27 01:38 -2.14921 -79.94244 4783 ft 95 kts 336°
2026-04-27 01:38 -2.14345 -79.94538 5062 ft 92 kts 335°
2026-04-27 01:39 -2.13786 -79.94824 5343 ft 88 kts 336°
2026-04-27 01:39 -2.13258 -79.95095 5625 ft 84 kts 337°
2026-04-27 01:39 -2.12747 -79.95356 5901 ft 82 kts 337°
2026-04-27 01:39 -2.12227 -79.95622 6141 ft 84 kts 338°
2026-04-27 01:40 -2.11698 -79.95891 6362 ft 87 kts 338°
2026-04-27 01:40 -2.11141 -79.96175 6579 ft 90 kts 337°
2026-04-27 01:40 -2.10579 -79.96462 6783 ft 91 kts 336°
2026-04-27 01:40 -2.10006 -79.96755 6993 ft 93 kts 336°
2026-04-27 01:41 -2.09428 -79.97051 7200 ft 93 kts 335°
2026-04-27 01:41 -2.08850 -79.97349 7409 ft 93 kts 336°
2026-04-27 01:41 -2.08278 -79.97641 7618 ft 93 kts 336°
2026-04-27 01:41 -2.07696 -79.97938 7831 ft 93 kts 335°
2026-04-27 01:42 -2.07086 -79.98250 7923 ft 106 kts 335°
2026-04-27 01:42 -2.06366 -79.98616 7928 ft 121 kts 335°
2026-04-27 01:42 -2.05593 -79.99011 7925 ft 128 kts 334°
2026-04-27 01:42 -2.04775 -79.99431 7928 ft 133 kts 334°
2026-04-27 01:43 -2.03940 -79.99858 7926 ft 136 kts 334°
2026-04-27 01:43 -2.03091 -80.00293 7920 ft 137 kts 334°
2026-04-27 01:43 -2.02241 -80.00729 7915 ft 136 kts 335°
2026-04-27 01:43 -2.01392 -80.01163 7913 ft 136 kts 335°
2026-04-27 01:44 -2.00653 -80.01541 7915 ft 136 kts 335°
2026-04-27 01:44 -1.99808 -80.01973 7919 ft 136 kts 335°
2026-04-27 01:44 -1.98964 -80.02404 7919 ft 137 kts 335°
2026-04-27 01:44 -1.98111 -80.02840 7925 ft 137 kts 335°
2026-04-27 01:45 -1.97253 -80.03279 7922 ft 138 kts 335°
2026-04-27 01:45 -1.96397 -80.03717 7922 ft 138 kts 335°
2026-04-27 01:45 -1.95535 -80.04157 7920 ft 138 kts 335°
2026-04-27 01:45 -1.94682 -80.04594 7920 ft 137 kts 335°
2026-04-27 01:46 -1.93819 -80.05035 7920 ft 137 kts 335°
2026-04-27 01:46 -1.92964 -80.05472 7920 ft 137 kts 334°
2026-04-27 01:46 -1.92118 -80.05905 7918 ft 136 kts 335°
2026-04-27 01:46 -1.91265 -80.06341 7920 ft 136 kts 334°
2026-04-27 01:47 -1.90426 -80.06770 7922 ft 137 kts 334°
2026-04-27 01:47 -1.89566 -80.07209 7927 ft 137 kts 335°
2026-04-27 01:47 -1.88714 -80.07643 7927 ft 137 kts 335°
2026-04-27 01:47 -1.87858 -80.08082 7929 ft 137 kts 335°
2026-04-27 01:48 -1.87001 -80.08520 7929 ft 138 kts 335°
2026-04-27 01:48 -1.86152 -80.08953 7928 ft 138 kts 335°
2026-04-27 01:48 -1.85284 -80.09397 7927 ft 138 kts 335°
2026-04-27 01:48 -1.84432 -80.09834 7928 ft 137 kts 335°
2026-04-27 01:49 -1.83573 -80.10273 7927 ft 137 kts 335°
2026-04-27 01:49 -1.82715 -80.10711 7925 ft 137 kts 335°
2026-04-27 01:49 -1.81867 -80.11144 7922 ft 137 kts 335°
2026-04-27 01:49 -1.81017 -80.11579 7929 ft 136 kts 335°
2026-04-27 01:50 -1.80163 -80.12014 7929 ft 137 kts 335°
2026-04-27 01:50 -1.79313 -80.12447 7928 ft 137 kts 335°
2026-04-27 01:50 -1.78461 -80.12883 7931 ft 137 kts 335°
2026-04-27 01:50 -1.77609 -80.13319 7932 ft 137 kts 335°
2026-04-27 01:51 -1.76750 -80.13758 7932 ft 137 kts 335°
2026-04-27 01:51 -1.75898 -80.14193 7933 ft 136 kts 335°
2026-04-27 01:51 -1.75053 -80.14625 7935 ft 137 kts 335°
2026-04-27 01:51 -1.74203 -80.15058 7935 ft 137 kts 335°
2026-04-27 01:52 -1.73341 -80.15498 7936 ft 137 kts 335°
2026-04-27 01:52 -1.72493 -80.15931 7934 ft 137 kts 334°
2026-04-27 01:52 -1.71643 -80.16364 7935 ft 137 kts 335°
2026-04-27 01:52 -1.70789 -80.16800 7935 ft 137 kts 335°
2026-04-27 01:53 -1.69929 -80.17239 7935 ft 137 kts 335°
2026-04-27 01:53 -1.69084 -80.17671 7936 ft 137 kts 335°
2026-04-27 01:53 -1.68227 -80.18110 7936 ft 137 kts 335°
2026-04-27 01:53 -1.67380 -80.18542 7937 ft 137 kts 335°
2026-04-27 01:54 -1.66523 -80.18980 7937 ft 137 kts 335°
2026-04-27 01:54 -1.65675 -80.19414 7940 ft 137 kts 335°
2026-04-27 01:54 -1.64819 -80.19852 7942 ft 137 kts 335°
2026-04-27 01:54 -1.63967 -80.20287 7944 ft 137 kts 335°
2026-04-27 01:55 -1.63107 -80.20727 7948 ft 137 kts 335°
2026-04-27 01:55 -1.62255 -80.21162 7950 ft 137 kts 335°
2026-04-27 01:55 -1.61404 -80.21597 7951 ft 137 kts 335°
2026-04-27 01:55 -1.60543 -80.22037 7950 ft 137 kts 335°
2026-04-27 01:56 -1.58836 -80.22910 7950 ft 137 kts 334°
2026-04-27 01:56 -1.57981 -80.23347 7951 ft 137 kts 335°
2026-04-27 01:56 -1.57119 -80.23776 7948 ft 137 kts 341°
2026-04-27 01:57 -1.56208 -80.24006 7950 ft 136 kts 341°
2026-04-27 01:57 -1.55322 -80.24369 7950 ft 137 kts 339°
2026-04-27 01:57 -1.54436 -80.24736 7949 ft 137 kts 340°
2026-04-27 01:57 -1.53547 -80.25097 7947 ft 137 kts 340°
2026-04-27 01:58 -1.52647 -80.25453 7944 ft 137 kts 340°
2026-04-27 01:58 -1.51755 -80.25803 7882 ft 141 kts 340°
2026-04-27 01:58 -1.50845 -80.26155 7761 ft 138 kts 341°
2026-04-27 01:58 -1.49935 -80.26507 7642 ft 138 kts 341°
2026-04-27 01:59 -1.49041 -80.26849 7524 ft 138 kts 341°
2026-04-27 01:59 -1.48135 -80.27196 7404 ft 138 kts 341°
2026-04-27 01:59 -1.47233 -80.27538 7285 ft 139 kts 341°
2026-04-27 01:59 -1.46327 -80.27885 7167 ft 139 kts 341°
2026-04-27 02:00 -1.45411 -80.28233 7047 ft 139 kts 341°
2026-04-27 02:00 -1.44508 -80.28575 6929 ft 139 kts 341°
2026-04-27 02:00 -1.43592 -80.28924 6810 ft 139 kts 341°
2026-04-27 02:00 -1.42675 -80.29271 6690 ft 140 kts 341°
2026-04-27 02:01 -1.41771 -80.29614 6573 ft 140 kts 341°
2026-04-27 02:01 -1.40847 -80.29965 6452 ft 140 kts 342°
2026-04-27 02:01 -1.39929 -80.30314 6332 ft 140 kts 342°
2026-04-27 02:01 -1.39025 -80.30657 6214 ft 140 kts 341°
2026-04-27 02:02 -1.38107 -80.31004 6094 ft 140 kts 341°
2026-04-27 02:02 -1.37191 -80.31351 5975 ft 140 kts 341°
2026-04-27 02:02 -1.36271 -80.31701 5855 ft 140 kts 341°
2026-04-27 02:02 -1.35346 -80.32052 5735 ft 140 kts 341°
2026-04-27 02:03 -1.34432 -80.32398 5616 ft 140 kts 341°
2026-04-27 02:03 -1.33509 -80.32748 5497 ft 140 kts 341°
2026-04-27 02:03 -1.32597 -80.33095 5377 ft 140 kts 341°
2026-04-27 02:03 -1.31683 -80.33440 5258 ft 140 kts 342°
2026-04-27 02:04 -1.30759 -80.33791 5136 ft 138 kts 341°
2026-04-27 02:04 -1.29879 -80.34127 5014 ft 134 kts 342°
2026-04-27 02:04 -1.29006 -80.34460 4889 ft 132 kts 341°
2026-04-27 02:04 -1.28138 -80.34792 4721 ft 134 kts 342°
2026-04-27 02:05 -1.27272 -80.35128 4555 ft 134 kts 341°
2026-04-27 02:05 -1.26385 -80.35465 4389 ft 135 kts 342°
2026-04-27 02:05 -1.25512 -80.35792 4245 ft 134 kts 342°
2026-04-27 02:05 -1.24631 -80.36124 4098 ft 134 kts 341°
2026-04-27 02:06 -1.23757 -80.36455 3954 ft 134 kts 341°
2026-04-27 02:06 -1.22882 -80.36787 3812 ft 134 kts 341°
2026-04-27 02:06 -1.22002 -80.37121 3668 ft 134 kts 341°
2026-04-27 02:06 -1.21135 -80.37449 3575 ft 130 kts 341°
2026-04-27 02:07 -1.20311 -80.37762 3560 ft 123 kts 341°
2026-04-27 02:07 -1.19512 -80.38066 3561 ft 119 kts 342°
2026-04-27 02:07 -1.18751 -80.38355 3565 ft 116 kts 341°
2026-04-27 02:07 -1.17996 -80.38641 3570 ft 114 kts 341°
2026-04-27 02:08 -1.17257 -80.38921 3575 ft 113 kts 342°
2026-04-27 02:08 -1.16474 -80.39217 3581 ft 125 kts 342°
2026-04-27 02:08 -1.15625 -80.39537 3578 ft 133 kts 342°
2026-04-27 02:08 -1.14739 -80.39874 3574 ft 137 kts 341°
2026-04-27 02:09 -1.13831 -80.40217 3569 ft 140 kts 341°
2026-04-27 02:09 -1.12912 -80.40565 3564 ft 141 kts 341°
2026-04-27 02:09 -1.11985 -80.40916 3560 ft 142 kts 341°
2026-04-27 02:09 -1.11050 -80.41269 3556 ft 142 kts 341°
2026-04-27 02:10 -1.10117 -80.41623 3554 ft 142 kts 341°
2026-04-27 02:10 -1.09187 -80.41974 3551 ft 143 kts 341°
2026-04-27 02:10 -1.08260 -80.42325 3551 ft 142 kts 341°
2026-04-27 02:10 -1.07323 -80.42679 3551 ft 142 kts 341°
2026-04-27 02:11 -1.06394 -80.43031 3550 ft 142 kts 341°
2026-04-27 02:11 -1.05464 -80.43382 3550 ft 142 kts 341°
2026-04-27 02:11 -1.04545 -80.43729 3550 ft 141 kts 341°
2026-04-27 02:11 -1.03617 -80.44080 3552 ft 141 kts 341°
2026-04-27 02:12 -1.02690 -80.44430 3549 ft 141 kts 341°
2026-04-27 02:12 -1.01767 -80.44778 3549 ft 141 kts 342°
2026-04-27 02:12 -1.00843 -80.45127 3548 ft 141 kts 341°
2026-04-27 02:12 -0.99921 -80.45476 3546 ft 142 kts 341°
2026-04-27 02:13 -0.98983 -80.45830 3545 ft 142 kts 341°
2026-04-27 02:13 -0.98052 -80.46183 3547 ft 142 kts 341°
2026-04-27 02:13 -0.97126 -80.46532 3544 ft 142 kts 341°
2026-04-27 02:13 -0.96189 -80.46887 3543 ft 142 kts 341°
2026-04-27 02:14 -0.95269 -80.47235 3542 ft 142 kts 341°
2026-04-27 02:14 -0.94332 -80.47589 3543 ft 142 kts 341°
2026-04-27 02:14 -0.93404 -80.47941 3543 ft 141 kts 341°
2026-04-27 02:14 -0.92489 -80.48287 3543 ft 141 kts 341°
2026-04-27 02:15 -0.91559 -80.48640 3544 ft 141 kts 340°
2026-04-27 02:15 -0.90816 -80.49262 3540 ft 136 kts 308°
2026-04-27 02:15 -0.90403 -80.50054 3426 ft 117 kts 294°
2026-04-27 02:15 -0.90151 -80.50774 3270 ft 103 kts 289°
2026-04-27 02:16 -0.89953 -80.51457 3038 ft 103 kts 288°
2026-04-27 02:16 -0.89776 -80.52151 2798 ft 103 kts 286°
2026-04-27 02:16 -0.89615 -80.52837 2565 ft 102 kts 285°
2026-04-27 02:16 -0.89459 -80.53535 2325 ft 102 kts 284°
2026-04-27 02:17 -0.89311 -80.54217 2088 ft 101 kts 283°
2026-04-27 02:17 -0.89170 -80.54880 1966 ft 90 kts 283°
2026-04-27 02:17 -0.89048 -80.55456 1937 ft 81 kts 282°
2026-04-27 02:17 -0.88948 -80.56008 1940 ft 78 kts 280°
2026-04-27 02:18 -0.88848 -80.56535 1939 ft 77 kts 280°
2026-04-27 02:18 -0.88745 -80.57066 1938 ft 77 kts 281°
2026-04-27 02:18 -0.88649 -80.57591 1939 ft 77 kts 281°
2026-04-27 02:18 -0.88556 -80.58128 1939 ft 78 kts 281°
2026-04-27 02:19 -0.88616 -80.58688 1867 ft 81 kts 255°
2026-04-27 02:19 -0.88815 -80.59208 1779 ft 80 kts 246°
2026-04-27 02:19 -0.89072 -80.59710 1688 ft 80 kts 242°
2026-04-27 02:19 -0.89353 -80.60191 1591 ft 79 kts 239°
2026-04-27 02:20 -0.89639 -80.60643 1495 ft 75 kts 237°
2026-04-27 02:20 -0.89920 -80.61070 1402 ft 72 kts 236°
2026-04-27 02:20 -0.90198 -80.61482 1312 ft 70 kts 236°
2026-04-27 02:20 -0.90473 -80.61885 1223 ft 69 kts 235°
2026-04-27 02:21 -0.90742 -80.62278 1137 ft 67 kts 234°
2026-04-27 02:21 -0.91007 -80.62663 1049 ft 66 kts 234°
2026-04-27 02:21 -0.91268 -80.63042 964 ft 65 kts 234°
2026-04-27 02:21 -0.91527 -80.63419 880 ft 65 kts 233°
2026-04-27 02:22 -0.91785 -80.63793 797 ft 66 kts 233°
2026-04-27 02:22 -0.92043 -80.64168 713 ft 65 kts 233°
2026-04-27 02:22 -0.92303 -80.64544 630 ft 66 kts 233°
2026-04-27 02:22 -0.92566 -80.64926 545 ft 67 kts 233°
2026-04-27 02:23 -0.92829 -80.65309 458 ft 67 kts 233°
2026-04-27 02:23 -0.93093 -80.65693 371 ft 67 kts 232°
2026-04-27 02:23 -0.93356 -80.66074 284 ft 66 kts 232°
2026-04-27 02:23 -0.93602 -80.66463 198 ft 65 kts 231°
2026-04-27 02:24 -0.93870 -80.66821 118 ft 63 kts 231°
2026-04-27 02:24 -0.94117 -80.67163 66 ft 54 kts 245°
2026-04-27 02:24 -0.94267 -80.67381 62 ft 29 kts 234°
2026-04-27 02:24 -0.94361 -80.67520 59 ft 19 kts 235°
2026-04-27 02:25 -0.94430 -80.67620 59 ft 15 kts 234°
2026-04-27 02:25 -0.94476 -80.67686 59 ft 0 kts 233°
2026-04-27 02:25 -0.94562 -80.67707 59 ft 13 kts 189°
2026-04-27 02:25 -0.94657 -80.67725 59 ft 14 kts 196°
2026-04-27 02:26 -0.94725 -80.67799 59 ft 15 kts 236°
2026-04-27 02:26 -0.94791 -80.67896 57 ft 17 kts 236°
2026-04-27 02:26 -0.94851 -80.67983 56 ft 13 kts 236°
2026-04-27 02:26 -0.94908 -80.68065 55 ft 15 kts 237°
2026-04-27 02:27 -0.94976 -80.68167 53 ft 18 kts 235°
2026-04-27 02:27 -0.95043 -80.68265 54 ft 14 kts 236°
2026-04-27 02:27 -0.95100 -80.68348 53 ft 15 kts 236°
2026-04-27 02:27 -0.95170 -80.68450 53 ft 18 kts 235°
2026-04-27 02:28 -0.95242 -80.68550 53 ft 14 kts 237°
2026-04-27 02:28 -0.95293 -80.68627 53 ft 13 kts 235°
2026-04-27 02:28 -0.95338 -80.68712 53 ft 14 kts 248°
2026-04-27 02:28 -0.95378 -80.68813 54 ft 11 kts 248°
2026-04-27 02:29 -0.95429 -80.68816 55 ft 7 kts 147°
2026-04-27 02:29 -0.95468 -80.68789 56 ft 6 kts 144°
2026-04-27 02:29 -0.95477 -80.68758 56 ft 5 kts 47°
2026-04-27 02:29 -0.95458 -80.68757 55 ft 5 kts 240°
2026-04-27 02:30 -0.95459 -80.68758 55 ft 0 kts 242°